Vorticity
nan nan nan nan nan nan nan nan nan nan nan nan nan nan nan nan nan nan nan nan nan nan nan nan nan nan nan nan nan nan nan nan nan
nan 5 5 6 6 5 4 4 4 6 7 5 4 5 9 12 7 3 2 4 5 6 6 5 5 5 6 9 11 7 5 4 nan
nan 4 5 6 5 5 4 4 4 5 6 4 3 2 10 8 4 6 6 4 6 5 5 5 6 6 5 4 5 6 5 5 nan
nan 3 4 5 6 5 5 4 5 4 5 5 3 3 5 8 6 6 5 5 5 5 5 5 5 6 6 7 5 5 5 5 nan
nan 5 5 5 5 5 5 5 5 4 4 4 4 4 7 9 6 7 6 5 4 4 5 5 5 5 6 6 7 7 7 7 nan
nan 5 7 5 5 5 5 5 5 4 4 5 4 6 10 7 6 9 7 3 3 4 4 4 4 5 5 6 6 7 7 7 nan
nan 6 4 4 4 5 6 6 4 6 8 7 5 5 6 7 6 11 8 3 4 4 3 4 4 5 5 5 5 6 6 7 nan
nan 4 5 6 6 6 7 5 5 5 5 5 6 7 7 8 8 9 7 4 4 6 5 3 3 4 5 5 5 5 6 6 nan
nan 6 7 8 7 6 5 6 9 8 6 5 6 6 6 6 8 9 8 5 5 5 6 6 3 4 5 5 5 5 5 5 nan
nan 7 7 7 7 8 8 7 8 7 8 8 7 6 7 6 6 10 9 6 6 5 5 6 6 4 4 5 5 5 5 6 nan
nan 7 7 8 7 7 7 7 7 8 8 7 7 8 7 8 6 8 9 10 7 7 6 5 5 6 5 5 5 5 5 6 nan
nan 7 8 8 8 7 7 7 7 7 7 8 8 9 8 7 8 7 8 11 10 9 7 7 6 6 6 6 6 7 6 6 nan
nan 7 7 7 8 7 7 7 7 7 7 8 9 9 9 7 8 7 7 6 11 14 11 9 8 8 7 7 6 6 7 6 nan
nan 6 7 7 7 7 7 6 7 7 8 8 8 7 8 9 9 8 8 8 8 8 15 15 10 9 9 8 7 6 8 9 nan
nan 7 7 8 7 6 7 7 7 7 8 8 8 9 8 8 8 9 10 10 10 8 9 14 15 13 9 9 8 7 7 8 nan
nan 7 9 10 9 7 7 8 10 9 9 10 10 11 10 8 7 10 10 8 10 11 10 8 9 16 16 15 15 13 11 9 nan
nan 10 9 10 12 11 11 10 10 10 10 8 9 11 11 12 11 8 8 11 9 9 8 8 9 10 11 12 14 17 16 15 nan
nan 11 10 9 9 9 9 10 10 10 9 9 7 9 10 10 12 7 6 8 7 8 8 7 9 10 10 6 8 8 12 14 nan
nan 9 9 9 9 8 7 8 8 8 6 7 8 7 10 7 7 7 8 9 7 8 10 9 8 9 9 8 4 4 9 12 nan
nan nan nan nan nan nan nan nan nan nan nan nan nan nan nan nan nan nan nan nan nan nan nan nan nan nan nan nan nan nan nan nan nan
CAPE
38 0 0 0 2 10 4 6 4 40 73 38 0 0 0 0 29 85 99 51 31 0 0 84 58 161 217 102 181 283 270 213 167
50 0 0 0 0 0 0 0 0 13 61 55 32 0 0 61 88 107 37 0 0 0 0 0 1 4 37 182 238 229 215 167 88
101 59 5 0 0 2 6 1 6 8 65 53 29 0 24 7 5 0 0 12 0 0 0 0 0 0 0 0 62 151 157 112 57
238 100 58 16 14 14 18 15 14 0 4 35 20 4 9 0 0 0 2 18 0 0 0 0 0 0 0 0 0 0 0 2 2
343 177 122 52 22 17 28 19 17 10 0 0 0 0 0 8 0 0 2 7 5 0 0 0 0 0 0 0 0 0 0 0 0
56 31 63 63 36 21 18 31 34 7 0 0 0 0 2 0 0 0 12 16 0 0 0 0 0 0 0 0 0 0 0 0 0
112 46 24 42 28 21 21 28 36 3 0 0 0 0 0 0 0 2 0 3 35 11 0 0 0 0 0 0 0 0 0 0 0
45 64 43 53 9 41 23 26 15 1 0 0 0 0 0 0 0 0 0 0 35 74 31 0 0 0 0 0 0 0 0 0 0
0 0 0 0 0 0 0 0 0 0 0 0 0 0 0 0 0 0 0 0 3 47 60 65 0 0 0 0 0 0 0 0 0
0 0 0 0 0 0 0 0 0 0 0 0 0 0 0 0 0 0 0 0 0 9 61 63 95 5 0 0 1 0 0 0 0
0 0 0 0 0 0 0 0 0 0 0 0 0 0 0 0 0 0 0 0 0 0 20 59 60 105 68 5 6 4 3 1 2
0 5 23 0 0 0 0 0 0 0 0 0 0 0 0 0 0 0 0 0 0 0 0 30 64 83 93 95 17 8 7 2 0
173 69 79 134 68 8 7 8 0 0 0 4 20 1 0 2 15 23 26 15 0 0 0 1 10 64 142 152 154 37 15 2 0
353 304 240 179 220 219 186 156 172 172 116 165 124 60 70 70 49 48 65 99 56 5 0 0 0 28 90 170 170 203 202 186 10
509 477 433 375 377 321 311 242 257 349 351 151 113 119 84 111 106 94 44 15 51 36 23 14 0 0 0 27 121 136 221 330 173
390 432 483 439 433 403 269 307 264 357 354 139 139 89 136 83 0 0 9 20 30 2 0 0 1 1 0 33 47 63 251 226 257
485 499 496 668 563 331 331 342 286 171 169 102 101 56 2 0 7 16 11 0 0 0 0 0 0 0 0 0 0 0 5 92 212
10 16 38 55 48 85 47 68 85 52 86 74 84 91 22 35 31 23 0 3 0 0 0 0 0 0 0 1 0 0 0 0 11
0 0 0 0 5 9 8 11 43 68 56 147 22 34 44 65 39 25 6 7 1 25 10 2 7 1 0 0 0 0 0 0 2
0 0 0 0 0 0 1 4 7 27 26 32 34 27 26 13 12 37 28 65 24 9 12 0 0 0 0 0 0 0 2 3 5